[[{"header":{"parameterUnit":"m.s-1","parameterCategory":1,"la1":30.2991,"la2":30.254,"lo1":-89.0895,"lo2":-89.0444,"dy":0.0017,"dx":0.0017,"nx":28,"ny":28,"refTime":"2023-11-16T03:00:00:Z","depth":0,"parameterNumber":2,"parameterNumberName":"U-component_of_WINDS"},"data":[0,0,0,0,0,0,0,0,0,0,0,0,0,0,0,0,0,0,0,0,0,0,0,0,0,0,0,0,0,0,0,0,0,0,0,0,0,0,0,0,0,0,0,0,0,0,0,0,0,0,0,0,0,0,0,0,0,0,-4.2689,-4.269,0,-4.2769,-4.277,-4.2771,-4.2685,-4.2682,-4.2678,-4.2675,-4.2762,-4.2768,-4.2773,0,0,0,0,0,0,0,0,0,0,0,0,0,-4.2464,-4.2469,-4.2689,-4.269,-4.2691,-4.2769,-4.277,-4.2771,-4.2686,-4.2682,-4.2678,-4.2674,-4.2761,-4.2767,-4.2773,0,0,0,0,0,0,0,0,0,0,0,0,0,-4.2555,-4.2471,-4.2688,-4.2657,-4.2655,-4.2769,-4.277,-4.2772,-4.2686,-4.2681,-4.2676,-4.2672,-4.2758,-4.2766,-4.2774,-4.2924,0,0,-4.2799,-4.2803,0,0,0,0,0,0,0,0,-4.255,-4.2564,-4.2661,-4.266,-4.2657,-4.2712,-4.2723,-4.2823,-4.2688,-4.2675,-4.2675,-4.2669,-4.275,-4.2758,-4.2785,-4.2928,-4.2932,-4.28,-4.2805,-4.2808,-4.2811,0,0,0,0,0,0,0,-4.2544,-4.256,-4.2721,-4.2662,-4.266,-4.2641,-4.2648,-4.2742,-4.2739,-4.2675,-4.2669,-4.268,-4.2748,-4.2777,-4.2786,-4.2933,-4.28,-4.2807,-4.2812,-4.2815,-4.3206,-4.3211,0,0,0,0,0,0,-4.2541,-4.2555,-4.2718,-4.2723,-4.259,-4.2649,-4.2657,-4.27,-4.2738,-4.2739,-4.2684,-4.2676,-4.2766,-4.2777,-4.2789,-4.2968,-4.2808,-4.2816,-4.282,-4.3201,-4.3207,-4.3213,0,0,0,0,0,0,-4.2536,-4.2556,-4.2715,-4.2637,-4.2656,-4.2658,-4.2706,-4.2704,-4.2733,-4.2745,-4.2744,-4.2714,-4.2762,-4.2777,-4.2891,-4.297,-4.2819,-4.2827,-4.3194,-4.3203,-4.321,-4.3328,0,0,0,0,0,0,-4.253,-4.2555,-4.2611,-4.2639,-4.2661,-4.2815,-4.2711,-4.2709,-4.2746,-4.2736,-4.2772,-4.2774,-4.2759,-4.288,-4.2899,-4.2979,-4.2833,-4.3187,-4.3198,-4.3208,-4.3317,-4.3339,-4.3358,0,0,0,0,0,-4.2522,-4.2642,-4.2614,-4.2634,-4.273,-4.282,-4.2832,-4.2812,-4.2753,-4.281,-4.2818,-4.2773,-4.2958,-4.2892,-4.2913,-4.2996,-4.3182,-4.3195,-4.3207,-4.3308,-4.3335,-4.3358,0,0,0,0,0,0,-4.2624,-4.2645,-4.2615,-4.2746,-4.2782,-4.2805,-4.2876,-4.2841,-4.2895,-4.2883,-4.2857,-4.2866,-4.2988,-4.3003,-4.2929,-4.3144,-4.3061,-4.3078,-4.313,-4.3156,-4.3176,-4.3171,-4.284,0,0,0,0,0,-4.2661,-4.2731,-4.2745,-4.286,-4.2879,-4.2875,-4.2913,-4.2894,-4.2931,-4.2946,-4.2962,-4.3,-4.3067,-4.3112,-4.3174,-4.3318,-4.3326,-4.3386,-4.3407,-4.3423,-4.3439,-4.3519,-4.3546,-4.3254,-4.3254,-4.3254,0,0,-4.274,-4.276,-4.2805,-4.2881,-4.2906,-4.2981,-4.2888,-4.297,-4.3026,-4.2959,-4.3068,-4.3081,-4.3122,-4.3252,-4.331,-4.3269,-4.3522,-4.3439,-4.3452,-4.3459,-4.3535,-4.3562,-4.3587,-4.3262,-4.3261,-4.3259,0,0,-4.2921,-4.2942,-4.3041,-4.3068,-4.3107,-4.3103,-4.3127,-4.3156,-4.3162,-4.327,-4.3222,-4.3288,-4.3403,-4.3435,-4.3466,-4.366,-4.3622,-4.3681,-4.379,-4.3867,-4.389,-4.3911,-4.3982,-4.4008,-4.3697,-4.3697,-4.3697,0,-4.3014,-4.3123,-4.3096,-4.3182,-4.3218,-4.3159,-4.326,-4.3288,-4.3346,-4.3373,-4.3325,-4.3469,-4.3492,-4.363,-4.3678,-4.3704,-4.3732,-4.3678,-4.3889,-4.3909,-4.3928,-4.3996,-4.4022,-4.3704,-4.3703,-4.3702,-4.3702,0,-4.3236,-4.3312,-4.3388,-4.3444,-4.3488,-4.3581,-4.357,-4.3618,-4.3596,-4.3598,-4.371,-4.3736,-4.3803,-4.3833,-4.3813,-4.3969,-4.3943,-4.3892,-4.3808,-4.3963,-4.4027,-4.4052,-4.3714,-4.3712,-4.371,-4.3708,0,0,-4.3485,-4.3525,-4.3554,-4.3579,-4.3618,-4.3678,-4.3768,-4.3833,-4.3875,-4.3917,-4.3994,-4.4093,-4.4047,-4.4083,-4.4065,-4.4133,-4.4288,-4.4075,-4.4075,-4.4115,-4.4465,-4.4504,-4.4534,-4.4261,-4.4266,-4.427,-4.4462,0,-4.3669,-4.3825,-4.3804,-4.3955,-4.4027,-4.3972,-4.4051,-4.4085,-4.4089,-4.4151,-4.4156,-4.4228,-4.416,-4.4182,-4.4246,-4.4255,-4.4358,-4.4241,-4.4335,-4.4339,-4.4329,-4.4567,-4.4609,-4.4789,-4.4486,-4.449,-4.4493,0,-4.3904,-4.3954,-4.4112,-4.4141,-4.417,-4.4242,-4.43,-4.4359,-4.4396,-4.4395,-4.4435,-4.4405,-4.4498,-4.4411,-4.454,-4.4461,-4.4498,-4.4508,-4.4515,-4.4525,-4.4427,-4.4586,-4.4845,-4.4874,-4.4532,-4.4529,-4.4526,0,-4.4073,-4.4179,-4.4288,-4.4311,-4.4347,-4.4399,-4.4417,-4.4449,-4.4489,-4.454,-4.4566,-4.4628,-4.4663,-4.4712,-4.47,-4.4637,-4.4834,-4.4744,-4.4837,-4.4838,-4.4883,-4.4881,-4.5155,-4.4903,-4.4903,-4.4902,-4.4902,0,-4.4282,-4.4381,-4.4364,-4.4431,-4.4542,-4.4517,-4.4627,-4.4638,-4.4667,-4.4737,-4.4693,-4.476,-4.4739,-4.4806,-4.4797,-4.4907,-4.4922,-4.4925,-4.4923,-4.4931,-4.4931,-4.4957,-4.4945,-4.491,-4.4908,-4.4907,-4.4905,0,-4.4489,-4.4481,-4.4597,-4.4621,-4.4629,-4.471,-4.4731,-4.4795,-4.4795,-4.4884,-4.4904,-4.4906,-4.4981,-4.4974,-4.5059,-4.5054,-4.5191,-4.5171,-4.5178,-4.5175,-4.5269,-4.5261,-4.5571,-4.5611,-4.5332,-4.5334,-4.5336,0,-4.4624,-4.4699,-4.4731,-4.4774,-4.4795,-4.4865,-4.4905,-4.4884,-4.4929,-4.4978,-4.5037,-4.5108,-4.5164,-4.5288,-4.5298,-4.5364,-4.5348,-4.5451,-4.5357,-4.5364,-4.5352,-4.5349,-4.5357,-4.5471,-4.5474,-4.5477,-4.5479,0,-4.4865,-4.4858,-4.4917,-4.4977,-4.5026,-4.5072,-4.5114,-4.5152,-4.5135,-4.5187,-4.5264,-4.5307,-4.5394,-4.5467,-4.5529,-4.5548,-4.5513,-4.5508,-4.5533,-4.5544,-4.5546,-4.5548,-4.5231,-4.5502,-4.5499,-4.5498,-4.5496,-4.5496,-4.5042,-4.5107,-4.514,-4.5208,-4.5237,-4.5277,-4.5339,-4.5346,-4.5409,-4.5477,-4.5461,-4.5548,-4.5585,-4.5664,-4.569,-4.5759,-4.5722,-4.5758,-4.5768,-4.5778,-4.579,-4.5532,-4.577,-4.577,-4.5769,-4.5769,-4.5768,0,-4.5283,-4.5301,-4.5364,-4.5423,-4.5478,-4.5436,-4.548,-4.5529,-4.5606,-4.5642,-4.5698,-4.5787,-4.5857,-4.5872,-4.594,-4.5993,-4.5978,-4.6011,-4.6009,-4.6014,-4.5818,-4.5791,-4.6022,-4.6022,-4.6022,-4.6022,-4.6022,-4.6022,-4.5415,-4.5523,-4.5519,-4.5642,-4.5659,-4.5743,-4.5772,-4.581,-4.5839,-4.5939,-4.5997,-4.6005,-4.6034,-4.6104,-4.6167,-4.617,-4.6198,-4.6239,-4.6236,-4.6053,-4.6028,-4.6004,-4.5978,-4.6245,-4.6245,-4.6426,-4.6428,-4.6429]},{"header":{"parameterUnit":"m.s-1","parameterCategory":1,"la1":30.2991,"la2":30.254,"lo1":-89.0895,"lo2":-89.0444,"dy":0.0017,"dx":0.0017,"nx":28,"ny":28,"refTime":"2023-11-16T03:00:00:Z","depth":0,"parameterNumber":3,"parameterNumberName":"V-component_of_WINDS"},"data":[0,0,0,0,0,0,0,0,0,0,0,0,0,0,0,0,0,0,0,0,0,0,0,0,0,0,0,0,0,0,0,0,0,0,0,0,0,0,0,0,0,0,0,0,0,0,0,0,0,0,0,0,0,0,0,0,0,0,-4.1916,-4.1915,0,-4.1888,-4.1888,-4.1887,-4.1816,-4.1815,-4.1813,-4.1812,-4.1785,-4.1785,-4.1786,0,0,0,0,0,0,0,0,0,0,0,0,0,-4.1907,-4.1908,-4.1916,-4.1915,-4.1915,-4.1888,-4.1888,-4.1887,-4.1816,-4.1814,-4.1813,-4.1811,-4.1785,-4.1785,-4.1786,0,0,0,0,0,0,0,0,0,0,0,0,0,-4.1899,-4.1908,-4.1916,-4.1876,-4.1872,-4.1888,-4.1888,-4.1887,-4.1817,-4.1814,-4.1812,-4.181,-4.1784,-4.1785,-4.1786,-4.1838,0,0,-4.179,-4.179,0,0,0,0,0,0,0,0,-4.1899,-4.1899,-4.1882,-4.1879,-4.1875,-4.1853,-4.1875,-4.1871,-4.1817,-4.1838,-4.1812,-4.1809,-4.1809,-4.1808,-4.1808,-4.1837,-4.1836,-4.179,-4.179,-4.1791,-4.1791,0,0,0,0,0,0,0,-4.19,-4.19,-4.1905,-4.1882,-4.1878,-4.186,-4.1856,-4.1874,-4.1837,-4.1836,-4.1831,-4.1828,-4.1807,-4.1807,-4.1807,-4.1836,-4.179,-4.1791,-4.1791,-4.1792,-4.1905,-4.1908,0,0,0,0,0,0,-4.1906,-4.1901,-4.1906,-4.1904,-4.1882,-4.1862,-4.1858,-4.1862,-4.1836,-4.183,-4.183,-4.1825,-4.1807,-4.1806,-4.1806,-4.1865,-4.1791,-4.1792,-4.1792,-4.1903,-4.1906,-4.1909,0,0,0,0,0,0,-4.1906,-4.1907,-4.1907,-4.1901,-4.1899,-4.1865,-4.187,-4.1863,-4.1863,-4.1832,-4.1825,-4.1837,-4.1805,-4.1804,-4.1831,-4.1863,-4.1792,-4.1793,-4.19,-4.1904,-4.1907,-4.1983,0,0,0,0,0,0,-4.1906,-4.1908,-4.1927,-4.1902,-4.19,-4.1932,-4.1872,-4.1864,-4.1865,-4.1858,-4.1837,-4.1831,-4.1803,-4.1829,-4.1832,-4.1863,-4.1794,-4.1897,-4.1902,-4.1906,-4.1978,-4.1989,-4.1999,0,0,0,0,0,-4.1906,-4.195,-4.1928,-4.1929,-4.1923,-4.1934,-4.1933,-4.1899,-4.1868,-4.1887,-4.1867,-4.1832,-4.1859,-4.1833,-4.1835,-4.1867,-4.1895,-4.1901,-4.1906,-4.1973,-4.1987,-4.1998,0,0,0,0,0,0,-4.1981,-4.1946,-4.1922,-4.1959,-4.195,-4.1922,-4.1945,-4.1915,-4.1915,-4.1908,-4.1866,-4.1862,-4.1894,-4.1883,-4.1855,-4.1915,-4.1871,-4.1877,-4.1922,-4.1934,-4.1945,-4.1947,-4.1795,0,0,0,0,0,-4.2001,-4.2012,-4.1982,-4.2017,-4.2014,-4.1981,-4.1984,-4.1958,-4.1948,-4.1944,-4.1925,-4.1917,-4.1923,-4.1928,-4.1932,-4.1976,-4.197,-4.1999,-4.2009,-4.2018,-4.2024,-4.2045,-4.2058,-4.1926,-4.1926,-4.1926,0,0,-4.2044,-4.2027,-4.2036,-4.2032,-4.2022,-4.2034,-4.1978,-4.1994,-4.2003,-4.1946,-4.1969,-4.1956,-4.1943,-4.1979,-4.1993,-4.197,-4.2059,-4.2025,-4.2032,-4.2033,-4.2052,-4.2065,-4.2076,-4.193,-4.1929,-4.1929,0,0,-4.2128,-4.2117,-4.2144,-4.2135,-4.2121,-4.2098,-4.2105,-4.2082,-4.207,-4.2093,-4.2051,-4.2061,-4.2073,-4.2065,-4.2063,-4.2144,-4.2112,-4.2147,-4.2202,-4.2223,-4.2234,-4.2243,-4.2271,-4.2282,-4.2153,-4.2153,-4.2153,0,-4.2184,-4.2201,-4.2163,-4.2181,-4.218,-4.2129,-4.2157,-4.215,-4.2138,-4.2139,-4.2113,-4.2126,-4.2114,-4.2147,-4.2166,-4.2166,-4.2173,-4.2149,-4.2235,-4.2244,-4.2251,-4.2278,-4.2289,-4.2157,-4.2157,-4.2156,-4.2156,0,-4.2269,-4.2281,-4.2306,-4.2295,-4.2296,-4.232,-4.2285,-4.2292,-4.2266,-4.2246,-4.227,-4.2254,-4.2253,-4.2259,-4.2234,-4.2288,-4.2274,-4.2243,-4.2197,-4.2269,-4.2293,-4.2303,-4.2163,-4.2162,-4.2161,-4.2159,0,0,-4.24,-4.2367,-4.2377,-4.237,-4.235,-4.2359,-4.238,-4.2379,-4.2385,-4.2379,-4.2395,-4.2406,-4.2376,-4.2374,-4.2348,-4.2367,-4.2432,-4.2333,-4.2332,-4.2352,-4.2489,-4.2513,-4.2526,-4.241,-4.2412,-4.2413,-4.249,0,-4.2479,-4.2512,-4.2479,-4.2519,-4.2529,-4.248,-4.2498,-4.2488,-4.247,-4.2477,-4.2457,-4.2465,-4.2426,-4.2424,-4.244,-4.242,-4.2459,-4.2414,-4.2425,-4.2426,-4.243,-4.2538,-4.2564,-4.2637,-4.25,-4.2501,-4.2502,0,-4.2576,-4.2573,-4.2614,-4.2591,-4.2594,-4.2611,-4.2607,-4.2614,-4.2601,-4.2587,-4.2584,-4.2552,-4.2571,-4.2527,-4.2552,-4.2522,-4.2525,-4.2515,-4.2517,-4.2517,-4.2469,-4.2541,-4.266,-4.2671,-4.2517,-4.2516,-4.2515,0,-4.2667,-4.2674,-4.2699,-4.2695,-4.2669,-4.2681,-4.2671,-4.2656,-4.2657,-4.2654,-4.2655,-4.2654,-4.2654,-4.2654,-4.2623,-4.2594,-4.2652,-4.2605,-4.2641,-4.2642,-4.2655,-4.2655,-4.2776,-4.2657,-4.2657,-4.2657,-4.2656,0,-4.2759,-4.2787,-4.2739,-4.2755,-4.2783,-4.2744,-4.2774,-4.2758,-4.2745,-4.2757,-4.2715,-4.2727,-4.2685,-4.2693,-4.2669,-4.2693,-4.2693,-4.2682,-4.2676,-4.2686,-4.2688,-4.2687,-4.2681,-4.266,-4.2659,-4.2658,-4.2658,0,-4.2866,-4.2836,-4.286,-4.2832,-4.2826,-4.2848,-4.2825,-4.2838,-4.2817,-4.2832,-4.2834,-4.2801,-4.2808,-4.2776,-4.2778,-4.2762,-4.2798,-4.2783,-4.2803,-4.2798,-4.2835,-4.2832,-4.296,-4.2975,-4.2847,-4.2848,-4.2849,0,-4.2927,-4.2946,-4.2921,-4.2925,-4.2917,-4.2925,-4.2926,-4.2888,-4.2891,-4.2877,-4.2892,-4.2895,-4.2896,-4.2909,-4.2885,-4.2886,-4.2871,-4.2915,-4.2871,-4.288,-4.2871,-4.287,-4.2872,-4.2925,-4.2927,-4.2928,-4.2929,0,-4.3038,-4.3022,-4.3024,-4.3022,-4.3024,-4.302,-4.3014,-4.302,-4.2979,-4.2984,-4.299,-4.2991,-4.2992,-4.2995,-4.2991,-4.2981,-4.2948,-4.2943,-4.2951,-4.2962,-4.2973,-4.2967,-4.2828,-4.2941,-4.2939,-4.2939,-4.2938,-4.2937,-4.3123,-4.3138,-4.3122,-4.3127,-4.3117,-4.3112,-4.3123,-4.3103,-4.3107,-4.3105,-4.3082,-4.3092,-4.3079,-4.307,-4.3062,-4.307,-4.3049,-4.3061,-4.3064,-4.3067,-4.3074,-4.2972,-4.3069,-4.3069,-4.3068,-4.3068,-4.3068,0,-4.3232,-4.3219,-4.3223,-4.3215,-4.3219,-4.3187,-4.3178,-4.3183,-4.3192,-4.3182,-4.3183,-4.319,-4.3193,-4.317,-4.317,-4.318,-4.3165,-4.3182,-4.318,-4.3179,-4.3093,-4.3085,-4.3194,-4.3194,-4.3194,-4.3194,-4.3193,-4.3193,-4.3289,-4.3312,-4.3294,-4.3312,-4.3299,-4.3308,-4.3306,-4.3301,-4.3292,-4.3301,-4.3304,-4.3288,-4.3272,-4.3271,-4.3272,-4.3265,-4.3267,-4.3289,-4.3277,-4.3197,-4.3185,-4.3173,-4.3166,-4.3289,-4.3289,-4.3362,-4.3362,-4.3363]}]]